GFSSGP_con_mlcape_057.txt.gz
CAPE
0 0 0 0 0 0 0 0 0 0 0 0 0 0 0 0 0 0 0 0 0 0 4 78 117 168 155 94 70 61 69 117 157 85 72 70 32 6 0 0 0 0 0 0 0 0 0 0 0
0 0 0 0 0 0 0 0 0 0 0 0 0 0 0 0 8 0 0 0 0 0 33 8 51 119 77 64 24 45 81 107 103 79 57 27 8 0 0 0 0 0 0 0 0 0 0 0 0
0 0 0 0 0 0 0 0 0 0 0 0 0 0 0 53 27 7 2 0 0 0 38 0 1 6 72 21 2 23 52 75 94 96 100 58 36 9 0 0 0 0 0 0 0 0 0 0 0
0 0 0 0 0 0 0 0 0 0 0 0 0 0 0 15 83 37 5 0 0 0 3 17 0 4 66 0 0 9 24 41 64 91 95 89 42 0 0 0 0 0 0 0 0 0 0 0 1
0 0 0 0 0 0 0 0 0 0 0 0 0 0 7 13 101 91 7 0 0 0 0 16 0 0 62 0 0 6 18 33 32 86 93 68 6 0 0 0 0 0 0 0 0 0 0 0 12
0 0 0 0 0 0 0 0 0 0 0 0 0 0 38 29 91 78 7 0 0 0 0 0 0 0 18 0 0 0 23 16 41 80 98 84 24 7 0 0 0 0 0 0 0 0 0 0 19
0 0 0 0 0 0 0 0 0 0 0 0 0 0 4 83 153 18 0 0 0 0 0 0 0 0 4 0 0 0 13 17 34 43 47 89 68 29 10 0 0 0 0 0 0 0 0 0 32
0 0 0 0 0 0 0 0 0 0 0 0 0 0 0 7 166 0 0 0 0 0 0 0 0 0 0 3 48 31 9 18 15 9 40 77 76 87 55 0 0 0 0 0 0 6 34 8 36
0 0 0 0 0 0 0 0 0 0 0 0 0 0 0 81 189 14 0 0 0 0 0 0 0 0 0 0 124 102 83 91 59 63 78 134 139 216 135 42 0 0 0 0 0 0 56 59 65
0 0 0 0 0 0 0 0 0 0 0 0 0 0 0 12 225 31 0 0 0 0 0 0 0 0 0 0 1 37 49 182 126 129 135 106 46 58 59 52 14 0 0 0 0 0 34 107 88
0 0 0 0 0 0 0 0 0 0 0 0 0 0 0 0 1 131 2 2 0 0 0 0 0 0 0 0 0 0 0 0 2 1 1 30 0 10 50 5 10 0 0 0 0 0 29 46 99
0 0 0 0 0 0 0 0 0 0 0 0 0 0 0 0 0 0 1 32 69 6 0 0 0 0 0 0 0 0 0 0 0 0 0 0 0 0 0 0 0 0 0 0 0 0 0 4 49
0 0 0 0 0 0 0 0 0 0 0 0 0 0 0 0 0 0 0 0 150 236 79 0 0 0 0 0 0 0 0 0 0 0 0 0 0 0 0 0 0 0 0 0 0 0 0 0 0
0 0 0 0 0 0 0 0 0 0 0 0 0 0 0 0 0 0 0 0 37 272 514 287 77 0 0 0 0 0 0 0 0 0 0 0 0 0 0 0 0 0 0 0 0 0 0 0 0
0 0 0 0 0 0 0 0 0 0 0 0 0 0 0 0 0 0 0 0 33 210 479 592 349 84 0 0 0 0 0 0 0 0 0 0 0 0 0 0 0 0 0 0 0 0 0 0 0
0 0 0 0 0 0 0 0 0 0 0 0 0 0 0 0 0 0 0 0 84 213 422 786 884 524 211 8 0 0 0 6 6 5 0 1 14 3 4 0 0 0 0 0 0 0 0 0 0
0 0 0 0 0 0 0 0 0 0 0 0 0 0 0 0 0 0 0 0 29 191 307 493 1033 868 547 330 156 138 170 279 337 253 258 234 246 207 164 160 118 20 15 0 0 0 0 0 0
0 0 0 0 0 0 0 0 0 0 0 0 0 0 0 0 0 0 0 0 0 83 226 313 385 618 648 600 694 572 548 511 579 641 551 485 437 398 313 317 256 109 91 29 3 4 0 6 24
0 0 0 0 0 0 0 0 0 0 0 0 0 0 0 0 0 0 0 0 0 0 16 151 223 318 225 381 383 566 498 773 958 1069 917 826 778 687 559 635 482 191 166 205 107 7 21 51 37
0 0 0 0 0 0 0 0 0 0 0 0 0 0 0 0 0 0 0 0 0 0 0 0 0 34 117 148 277 346 595 826 925 1140 1244 1250 1298 1307 1194 991 693 356 233 203 130 87 109 101 73
0 0 0 0 0 0 0 0 0 0 0 0 0 0 0 0 0 0 0 0 0 0 0 0 0 0 5 111 282 332 455 514 778 854 675 723 619 947 999 844 700 323 357 330 316 220 251 325 157
0 0 0 0 0 0 0 0 0 0 0 0 0 0 0 0 0 0 0 0 0 0 0 0 0 0 0 99 350 454 392 362 375 465 477 484 430 567 845 759 413 374 529 596 595 351 326 308 340
0 0 0 0 0 0 0 0 0 0 0 0 0 0 0 0 0 0 0 0 0 0 0 0 0 0 0 59 441 468 483 278 286 118 149 173 171 355 387 449 462 598 741 926 838 612 516 427 367
0 0 0 0 0 0 0 0 0 0 0 0 0 0 0 0 0 0 0 0 0 0 0 0 0 0 0 6 43 355 386 224 175 16 27 0 0 51 227 542 686 873 1047 1134 968 932 787 571 389
0 0 0 0 0 0 0 0 0 0 0 0 0 0 0 0 0 0 0 0 0 0 0 0 0 0 0 1 60 122 180 126 68 39 0 0 0 44 296 818 1009 1164 1286 1190 1065 974 835 489 320
0 0 0 0 0 0 0 0 0 0 0 0 0 0 0 0 0 0 0 0 0 0 0 0 0 0 0 0 30 68 64 88 19 6 0 0 1 58 440 1235 1300 1258 1216 1166 928 889 649 437 311
0 0 0 0 0 0 0 0 0 0 0 0 0 0 0 0 0 0 0 0 0 0 0 0 0 0 0 0 16 15 46 15 0 0 0 0 76 279 958 1328 1333 1284 1168 943 848 674 620 570 408
0 0 0 0 0 0 0 0 0 0 0 0 0 0 0 0 0 0 0 0 0 0 0 0 0 0 0 0 0 0 0 0 0 11 32 122 210 641 1158 1296 1263 1155 937 898 740 658 674 610 272
0 0 0 0 0 0 0 0 0 0 1 0 0 0 0 0 0 0 0 0 0 0 0 0 0 122 0 0 0 0 0 0 11 62 160 291 464 935 1219 1239 1025 848 834 876 663 707 565 450 339
0 0 0 0 0 0 7 0 0 0 0 0 0 0 0 0 0 0 0 0 0 0 0 0 0 147 79 0 0 0 0 0 50 151 293 492 640 1099 1234 1064 892 791 728 700 688 591 437 378 276

GFSSGP_con_mlcape_063.txt.gz
CAPE
0 0 0 0 0 0 0 0 0 0 0 0 0 0 0 0 0 0 0 0 0 0 401 982 973 612 297 151 577 883 993 1107 1128 946 821 605 565 414 437 301 188 118 46 0 0 0 0 0 0
0 0 0 0 0 0 0 0 0 0 0 0 0 0 0 0 0 0 0 0 0 6 278 1047 993 884 456 165 115 318 554 598 494 318 289 274 311 351 114 28 0 0 0 0 0 0 0 0 0
0 0 0 0 0 0 0 0 0 0 0 0 0 0 0 0 0 0 5 0 0 37 193 1102 1114 1069 629 253 108 62 47 27 4 4 17 8 26 2 0 0 0 0 0 0 0 0 0 0 0
0 0 0 0 0 0 0 0 0 0 0 0 0 0 0 0 0 21 30 0 0 34 160 857 1102 1118 817 431 166 91 50 17 0 0 0 0 0 0 0 0 0 0 0 0 0 0 0 0 0
0 0 0 0 0 0 0 0 0 0 0 0 0 0 0 0 54 37 3 0 0 13 100 624 1009 998 879 487 305 177 99 63 13 0 0 0 0 0 0 0 0 0 0 0 0 0 0 0 0
0 0 0 0 0 0 0 0 0 0 0 0 0 0 0 0 41 41 0 0 0 23 124 437 944 1064 894 532 453 290 172 116 36 1 0 0 0 0 0 0 0 0 0 0 0 0 0 0 0
0 0 0 0 0 0 0 0 0 0 0 0 0 0 0 0 19 5 0 0 0 101 122 636 769 1274 1199 691 467 452 434 329 102 55 31 0 8 0 0 0 0 0 0 0 0 0 0 0 0
0 0 0 0 0 0 0 0 0 0 0 0 0 0 0 0 28 20 0 0 0 40 81 381 717 816 1014 918 650 558 646 749 388 248 153 94 57 43 46 1 0 0 0 0 0 0 0 0 0
0 0 0 0 0 0 0 0 0 0 0 0 0 0 0 0 46 22 23 0 0 0 66 204 429 678 798 716 851 630 552 740 730 610 568 465 360 429 324 133 42 0 0 0 0 0 0 0 0
0 0 0 0 0 0 0 0 0 0 0 0 0 0 0 0 0 0 19 10 0 0 0 125 322 586 768 678 829 826 809 880 829 850 920 751 769 800 481 380 128 41 2 0 0 0 7 10 0
0 0 0 0 0 0 0 0 0 0 0 0 0 0 0 0 0 0 0 23 0 0 0 7 191 403 487 350 524 732 762 1056 1114 1000 1042 982 806 480 588 472 422 257 128 55 21 17 2 0 0
0 0 0 0 0 0 0 0 0 0 0 0 0 0 0 0 0 0 0 0 18 0 0 0 33 134 269 316 349 391 352 564 494 560 718 637 293 136 352 362 339 380 159 83 49 4 17 33 10
0 0 0 0 0 0 0 0 0 0 0 0 0 0 0 0 0 0 0 0 0 14 0 0 12 2 41 155 152 141 178 193 305 280 487 547 209 125 267 300 243 128 128 31 12 0 4 16 18
0 0 0 0 0 0 0 0 0 0 0 0 0 0 0 0 0 0 0 0 0 0 33 3 0 0 1 0 3 6 46 119 106 68 102 221 74 104 51 78 46 46 36 19 0 0 0 2 0
0 0 0 0 0 0 0 0 0 0 0 0 0 0 0 0 0 0 0 0 0 0 0 218 14 0 0 0 0 2 0 1 0 0 1 9 53 18 4 0 0 1 2 0 0 0 0 0 0
0 0 0 0 0 0 0 0 0 0 0 0 0 0 0 0 0 0 0 0 0 0 0 194 383 99 5 0 0 0 0 0 0 0 0 0 0 0 0 0 0 0 0 0 0 0 0 0 0
0 0 0 0 0 0 0 0 0 0 0 0 0 0 0 0 0 0 0 0 0 0 0 0 90 501 312 22 0 0 0 0 0 0 0 0 0 0 0 0 0 0 0 0 1 12 15 62 63
0 0 0 0 0 0 0 0 0 0 0 0 0 0 0 0 0 0 0 0 0 0 0 0 0 15 361 424 96 0 0 0 0 0 0 0 0 0 0 0 0 0 0 20 64 104 98 135 203
0 0 0 0 0 0 0 0 0 0 0 0 0 0 0 0 0 0 0 0 0 0 0 0 0 0 1010 772 731 450 216 0 0 0 0 0 0 0 0 36 0 0 49 201 260 266 272 255 184
0 0 0 0 0 0 0 0 0 0 0 0 0 0 0 0 0 0 0 0 0 0 0 0 0 0 0 364 757 922 862 565 283 192 150 141 117 85 114 87 154 123 258 404 425 387 418 408 292
0 0 0 0 0 0 0 0 0 0 0 0 0 0 0 0 0 0 0 0 0 0 0 0 0 0 0 0 103 722 957 924 1053 1023 924 738 514 424 471 610 548 550 488 720 721 524 534 565 364
0 0 0 0 0 0 0 0 0 0 0 0 0 0 0 0 0 0 0 0 0 0 0 0 0 0 0 0 0 0 55 204 519 1161 1431 1323 1137 987 936 1004 882 814 822 978 945 676 587 573 681
0 0 0 0 0 0 0 0 0 0 0 0 0 0 0 0 0 0 0 0 0 0 0 0 0 0 0 0 0 0 0 47 351 669 1126 1201 1269 1265 1265 1345 1278 1239 1120 1197 930 682 557 520 861
0 0 0 0 0 0 0 0 0 0 0 0 0 0 0 0 0 0 0 0 0 0 0 0 0 0 0 0 0 0 0 0 13 145 309 721 897 1320 1428 1532 1531 1330 1204 1023 929 784 562 606 801
0 0 0 0 0 0 0 0 0 0 0 0 0 0 0 0 0 0 0 0 0 0 0 0 0 0 0 0 0 0 0 0 0 43 97 210 423 778 1080 1250 1214 1026 1180 965 689 682 712 847 927
0 0 0 0 0 0 0 0 0 0 0 0 0 0 0 0 0 0 0 0 0 0 0 0 0 0 0 0 0 0 0 0 0 0 166 133 270 603 882 880 977 827 747 463 764 865 963 1060 885
0 0 0 0 0 0 0 0 0 0 0 0 0 0 0 0 0 0 0 0 0 0 0 0 0 0 0 0 0 0 0 0 0 0 268 318 361 538 637 652 565 679 428 778 1111 1328 1393 1179 963
0 0 0 0 0 0 0 0 0 0 0 0 0 0 0 0 0 0 0 0 0 0 0 0 0 0 0 0 0 0 0 0 0 0 41 289 367 380 602 539 510 514 658 1436 1625 1654 1587 1433 1068
0 0 0 0 0 0 0 0 0 0 0 0 0 0 0 0 0 0 0 0 0 0 0 0 0 0 0 0 0 0 0 0 0 0 0 296 428 551 602 525 572 649 1167 1827 1798 1694 1400 1103 648
0 1 0 1 0 0 0 0 0 0 0 0 0 0 0 0 0 0 0 0 0 0 0 0 0 0 0 0 0 0 0 0 0 0 0 373 493 596 506 607 792 1055 1746 1864 1702 1427 1074 767 612

GFSSGP_con_mlcape_069.txt.gz
CAPE
0 0 0 0 0 0 0 0 0 0 0 0 0 0 0 0 0 4 7 0 0 255 217 464 255 348 669 1523 1215 932 652 435 319 324 385 379 413 441 436 410 471 560 437 67 0 0 0 0 0
0 0 0 0 0 0 0 0 0 0 0 0 0 0 0 0 0 0 3 30 0 403 392 246 219 373 451 1467 1428 1016 716 715 609 522 495 534 487 409 347 243 274 326 119 13 0 0 0 0 0
0 0 0 0 0 0 0 0 0 0 0 0 0 0 0 0 0 0 0 110 0 357 564 343 279 377 372 1271 1556 1162 893 960 889 757 672 664 455 274 238 129 164 81 24 0 0 0 0 0 0
0 0 0 0 0 0 0 0 0 0 0 0 0 0 0 0 0 0 48 187 105 229 513 813 432 272 390 835 1358 1325 1133 1170 1173 1064 877 660 325 121 119 27 42 0 0 0 0 0 0 0 0
0 0 0 0 0 0 0 0 0 0 0 0 0 0 0 0 0 0 167 216 206 140 315 1169 482 266 476 539 1143 1212 1270 1267 1348 1281 957 590 332 148 85 0 0 0 0 0 0 0 0 0 0
0 0 0 0 0 0 0 0 0 0 0 0 0 0 0 0 0 0 225 267 230 120 258 1589 596 423 445 384 688 1091 1185 1298 1432 1359 1064 659 310 158 46 0 0 0 0 0 0 0 0 0 0
0 0 0 0 0 0 0 0 0 0 0 0 0 0 0 0 0 0 186 225 195 118 233 1728 675 825 589 498 484 861 1019 1108 1225 1171 1002 654 246 106 26 0 0 0 0 0 0 0 0 0 0
0 0 0 0 0 0 1 0 0 0 0 0 0 0 0 0 0 0 56 181 166 97 205 1293 596 592 639 676 561 544 871 936 809 669 516 333 154 66 31 6 0 0 0 0 0 0 0 0 0
0 0 0 0 0 0 0 1 0 0 0 0 0 0 0 0 0 0 0 210 156 118 174 719 485 399 368 325 696 450 432 522 490 416 321 182 43 92 78 12 29 0 0 0 0 0 0 0 0
0 0 0 0 0 0 1 14 4 0 0 0 0 0 0 0 0 0 0 34 163 170 182 266 502 396 352 207 334 459 318 248 200 135 244 158 26 64 53 47 29 63 0 0 0 0 0 0 0
0 0 0 0 0 0 6 8 31 13 0 0 0 0 0 0 0 0 0 0 216 163 189 173 564 691 440 218 243 406 160 185 255 232 301 335 100 101 196 125 177 149 85 0 2 2 0 0 0
0 0 0 0 0 0 0 5 6 20 6 0 0 0 0 0 0 0 0 0 0 199 105 139 421 721 661 295 211 313 116 262 269 317 800 788 405 335 386 265 262 438 131 126 40 74 66 29 7
0 0 0 0 0 0 0 0 0 12 27 0 0 0 0 0 0 0 0 0 0 4 207 66 225 770 1083 1239 310 315 338 233 276 368 769 767 676 546 692 634 242 190 237 145 204 119 82 65 72
0 0 0 0 0 0 0 0 0 0 2 4 0 0 0 0 0 0 0 0 0 3 40 179 150 458 944 1221 1508 864 939 332 398 431 622 1277 969 990 627 633 360 210 101 50 56 107 78 82 107
0 0 0 0 0 0 0 0 0 0 0 0 0 0 0 0 0 0 0 0 0 0 0 0 266 207 817 1173 1287 1090 680 725 471 495 827 1301 1496 1044 810 412 358 260 168 103 78 88 65 70 132
0 0 0 0 0 0 0 0 0 0 0 0 0 0 0 0 0 0 0 0 0 0 0 0 107 238 745 793 992 899 552 439 402 399 488 831 1555 1251 1109 517 366 254 138 102 65 69 136 112 154
0 0 0 0 0 0 0 0 0 0 0 0 0 0 0 0 0 0 0 0 0 0 0 0 12 165 972 868 827 755 634 306 202 180 166 451 908 1185 1044 653 313 374 194 80 28 99 63 212 314
0 0 0 0 0 0 0 0 0 0 0 0 0 0 0 0 0 0 0 0 0 0 0 0 0 80 855 1191 1035 839 526 496 246 143 149 123 328 681 911 429 325 348 133 69 69 86 79 301 486
0 0 0 0 0 0 0 0 0 0 0 0 0 0 0 0 0 0 0 0 0 0 0 0 0 0 13 642 582 1158 1042 514 81 152 89 160 362 282 622 317 239 289 72 257 166 73 432 647 919
0 0 0 0 0 0 0 0 0 0 0 0 0 0 0 0 0 0 0 0 0 0 0 0 0 0 0 10 1087 884 1558 1495 989 425 185 221 284 479 506 527 215 327 385 576 328 540 753 944 1368
0 0 0 0 0 0 0 0 0 0 0 0 0 0 0 0 0 0 0 0 0 0 0 0 0 0 16 22 0 59 423 1469 1990 1491 1092 359 658 662 666 454 527 389 791 501 462 1236 1372 1005 1522
0 0 0 0 0 0 0 0 0 0 0 0 0 0 0 0 0 0 0 0 0 0 0 0 0 0 0 9 18 4 38 144 356 1291 2228 1759 879 958 689 719 761 870 975 738 1481 1787 1693 2020 1476
0 0 0 3 0 0 0 0 0 0 0 0 0 0 0 0 0 0 0 0 0 0 0 0 0 0 0 0 1 9 5 0 0 182 1254 1213 595 1384 996 162 38 1134 1771 1535 1695 2289 2272 2263 2082
0 0 2 0 0 0 0 0 0 0 0 0 0 0 0 0 0 0 0 0 0 0 0 0 0 0 0 0 0 0 0 12 25 18 168 207 1263 1915 1803 529 881 800 2290 2059 2780 2639 2896 2441 2412
4 1 0 2 8 0 0 0 0 0 0 0 0 0 0 0 0 0 0 0 0 0 0 0 0 0 0 0 0 0 3 6 15 7 20 30 163 451 2383 2933 2798 2854 3015 3186 2961 2962 3104 3057 2440
33 28 15 4 11 10 0 0 0 0 0 0 0 0 0 0 0 0 0 0 0 0 0 0 0 0 0 0 0 0 0 0 0 1 2 2 42 133 309 3011 3013 3453 3390 3330 3288 3080 3137 2905 2543
9 43 39 11 0 0 0 6 2 0 0 0 0 0 0 0 0 0 0 0 0 0 0 0 0 0 0 0 0 0 0 0 0 3 36 74 201 185 128 1088 2709 2966 3123 3401 3397 3099 2986 2629 2660
64 68 43 23 12 22 3 0 0 0 0 0 0 0 0 0 0 0 0 0 0 0 0 0 0 0 0 0 0 0 0 0 1 0 74 136 308 507 1109 1071 1363 2552 2775 3236 3478 2936 2903 2357 2193
77 12 52 25 14 32 13 7 0 0 0 0 2 7 0 0 1 0 0 0 0 0 0 0 0 0 0 0 0 0 0 0 5 18 33 128 370 856 944 1238 1636 2057 2573 3228 3354 2807 2081 2277 2509
125 0 11 84 8 40 37 2 0 0 2 11 0 0 0 16 3 0 0 0 0 0 0 0 0 0 0 0 0 0 0 0 0 9 46 251 419 687 855 1046 1209 1731 2348 3006 3015 2463 1781 2503 2584

GFSSGP_con_mlcape_072.txt.gz
CAPE
0 0 0 0 0 0 0 0 0 0 0 0 0 0 0 0 0 44 14 0 746 307 424 694 798 739 929 1183 892 541 254 132 212 254 158 156 212 406 487 415 391 438 348 62 0 0 0 0 0
0 0 0 0 0 0 0 0 0 0 0 0 0 0 0 0 0 0 13 4 888 426 300 587 805 512 607 1011 1150 762 435 247 266 310 238 243 272 405 253 175 259 303 50 0 0 0 0 0 0
0 0 0 0 0 0 0 0 0 0 0 0 0 0 0 0 0 0 0 109 995 618 359 720 727 402 494 898 1245 998 620 480 358 389 365 319 298 349 168 122 178 62 0 0 0 0 0 0 0
0 0 0 0 0 0 0 0 0 0 0 0 0 0 0 0 0 0 14 158 169 908 396 877 535 405 415 590 1145 1159 951 769 568 536 546 413 374 222 58 42 35 0 0 0 0 0 0 0 0
0 0 0 0 0 0 0 0 0 0 0 0 0 0 0 0 0 0 60 173 171 577 515 923 334 579 392 509 931 1182 1147 1124 956 834 802 638 444 95 23 0 0 0 0 0 0 0 0 0 0
0 0 0 0 0 0 0 0 0 0 0 0 0 0 0 0 0 0 91 261 194 327 761 997 239 772 418 475 655 1086 1307 1283 1361 1292 1143 848 543 79 20 0 0 0 0 0 0 0 0 0 0
0 0 0 0 0 0 0 0 0 0 0 0 0 0 0 0 0 0 54 227 360 292 1302 1204 363 731 809 743 606 958 1257 1328 1466 1471 1336 960 602 150 41 0 0 0 0 0 0 0 0 0 0
0 0 0 0 0 0 0 0 0 0 0 0 0 0 0 0 0 0 0 195 283 146 1860 1591 574 582 898 866 896 951 1127 1200 1284 1312 1218 876 518 207 53 0 0 0 0 0 0 0 0 0 0
0 0 0 0 0 0 0 0 0 0 0 0 0 0 0 0 0 0 0 129 220 136 1636 1422 564 559 710 715 1016 816 994 992 1023 1038 937 594 303 167 77 0 0 0 0 0 0 0 0 0 0
0 0 0 0 0 0 0 0 5 0 0 0 0 0 0 0 0 0 0 0 222 154 390 1277 473 589 582 315 795 601 881 997 884 710 595 207 75 92 17 44 0 17 0 0 0 0 0 0 0
0 0 0 0 0 0 0 0 5 18 0 0 0 0 0 0 0 0 0 0 11 184 209 978 534 574 454 255 840 538 541 517 470 339 337 232 112 80 137 116 68 43 38 11 7 0 0 0 0
0 0 0 0 0 0 0 0 0 0 21 0 0 0 0 0 0 0 0 0 0 126 155 845 879 724 486 352 624 736 300 396 404 386 397 671 168 161 276 212 227 223 260 78 12 30 25 20 3
0 0 0 0 0 0 0 0 0 0 0 9 4 0 0 0 0 0 0 0 0 8 122 255 1045 1141 768 906 658 795 241 376 401 567 617 638 944 383 380 679 429 821 575 288 161 61 185 128 124
0 0 0 0 0 0 0 0 0 0 0 0 0 3 0 0 0 0 0 0 0 10 47 147 814 1240 1475 1247 1635 1731 575 279 439 606 785 1020 968 913 733 787 858 529 676 462 362 353 252 231 150
0 0 0 0 0 0 0 0 0 0 0 0 0 0 0 0 0 0 0 0 0 0 7 51 211 641 914 1032 1245 1479 1483 976 645 719 1029 1209 1200 1149 1208 1121 779 659 408 322 269 256 295 213 245
0 0 0 0 0 0 0 0 0 0 0 0 0 0 0 0 0 1 0 0 0 0 0 7 145 493 751 861 805 1372 1251 941 895 926 1167 1731 1455 1585 1638 1239 811 691 645 491 306 216 162 122 154
0 0 0 0 0 0 0 0 0 0 0 0 0 0 0 0 0 0 0 0 0 0 0 0 32 493 766 882 670 443 1152 1027 851 652 861 1175 2021 1545 1147 1538 905 943 640 598 417 272 152 133 339
0 0 0 0 0 0 0 0 0 0 0 0 0 0 0 0 0 1 6 0 0 0 0 0 3 191 1113 853 898 671 583 735 712 396 461 688 1090 1881 1700 1475 1479 1122 683 517 267 134 126 245 216
0 0 0 0 0 0 0 0 0 0 0 0 0 0 0 0 0 13 0 0 0 0 0 0 0 0 409 1659 1021 813 630 451 606 792 299 375 539 1260 1436 1552 898 874 488 397 294 100 43 84 193
0 0 0 0 0 0 0 0 0 0 0 0 0 0 0 0 0 0 0 0 0 0 0 0 36 11 2 923 1231 786 697 1265 869 494 266 255 604 363 608 923 708 392 364 367 222 419 200 219 550
0 0 0 0 0 0 0 0 0 0 0 0 0 0 0 0 0 0 0 0 0 0 0 0 0 10 3 36 267 809 994 1258 1197 1610 1022 572 200 388 532 673 465 737 723 374 704 598 364 126 1190
0 0 0 0 0 0 0 1 0 0 0 0 0 0 0 0 0 0 0 0 0 0 0 0 0 0 0 0 22 52 68 129 178 46 956 2020 1409 526 320 586 687 766 343 969 731 661 320 649 789
0 0 0 0 0 1 0 0 0 0 0 0 0 0 0 0 0 0 0 0 0 0 0 0 0 0 0 1 0 0 54 55 31 230 301 672 1706 1380 609 920 676 339 620 378 684 637 771 1201 1377
0 2 0 0 0 0 0 5 0 0 0 0 1 0 0 0 0 0 0 0 0 0 0 0 0 0 0 0 2 0 0 16 48 42 200 455 1214 1571 1790 1123 882 833 1048 924 788 769 1059 1325 1227
0 4 1 14 20 1 0 1 0 0 0 0 0 0 0 0 0 0 0 0 0 0 0 0 0 0 0 0 14 2 2 36 11 2 2 9 61 308 1299 1455 874 678 677 751 461 339 971 1862 1138
71 2 3 14 16 19 25 0 3 0 0 0 0 0 0 0 0 4 1 6 1 5 1 0 3 0 0 0 0 1 0 13 2 20 9 8 0 15 101 1319 1826 1572 1440 1329 1492 2000 2359 2804 2447
49 0 2 96 48 30 0 0 0 0 0 0 0 0 0 0 0 0 0 0 0 1 0 2 2 0 0 0 8 1 7 29 19 12 8 1 71 174 248 208 153 2621 3287 3302 2987 2609 2936 3314 3388
2 0 30 1 0 0 0 0 0 0 0 1 0 0 0 0 0 0 0 0 0 0 1 0 0 0 4 0 0 0 30 130 122 82 69 31 17 80 186 302 626 1973 3375 3583 3495 3478 3471 3398 3441
62 25 65 88 103 10 0 0 16 0 0 0 0 0 0 0 1 0 0 3 6 3 1 4 13 11 7 8 3 0 0 0 29 23 155 266 214 329 456 490 379 374 1576 2549 3202 3210 3358 3301 3254
97 94 200 2 11 67 53 0 34 0 0 0 0 2 1 0 0 6 7 0 3 5 1 1 1 0 0 3 9 6 17 0 0 0 0 154 372 398 696 532 851 970 1383 1906 2033 2758 3487 3252 3122

GFSSGP_con_mlcape_075.txt.gz
CAPE
0 0 0 0 0 0 0 0 0 0 0 0 0 0 20 98 110 22 210 326 12 2 818 1468 1342 909 764 532 365 105 35 54 79 110 87 84 185 136 177 160 267 271 143 0 0 0 0 0 0
0 0 0 0 0 0 0 0 0 0 0 0 0 0 0 0 4 0 385 365 0 12 476 1112 1311 980 822 636 469 201 80 93 196 175 106 83 133 180 145 133 168 51 0 0 0 0 0 0 0
0 0 0 0 0 0 0 0 0 0 0 0 0 0 0 0 0 0 182 520 114 5 203 813 1152 1038 786 670 614 394 185 223 287 275 206 96 70 40 21 33 32 0 0 0 0 0 0 0 0
0 0 0 0 0 0 0 0 0 0 0 0 0 0 0 0 0 0 24 627 464 0 139 640 859 1025 629 687 666 633 379 391 419 411 328 178 114 29 0 0 0 0 0 0 0 0 0 0 0
0 0 0 0 0 0 0 0 0 0 0 0 0 0 0 0 0 33 29 312 627 172 127 360 607 1020 710 784 789 809 647 632 602 593 530 413 227 59 0 0 0 0 0 0 0 0 0 0 0
0 0 0 0 0 0 0 0 0 0 0 0 0 0 0 0 0 2 46 146 421 508 221 126 456 935 1096 855 861 900 864 910 807 784 711 512 253 76 29 0 0 0 0 0 0 0 0 0 0
0 0 0 0 0 0 0 0 0 0 0 0 0 0 0 0 0 0 55 44 134 609 545 128 270 756 1300 915 909 971 1021 1135 1116 945 842 604 299 49 24 0 0 0 0 0 0 0 0 0 0
0 0 0 0 0 0 0 0 0 0 0 0 0 0 0 0 0 0 11 66 414 947 808 225 89 597 1123 1220 1046 1021 1128 1214 1270 1223 1095 769 445 93 21 0 0 0 0 0 0 0 0 0 0
0 0 0 0 0 0 0 0 0 0 0 0 0 0 0 0 0 0 0 23 719 1157 843 509 121 198 546 1187 1258 1232 1215 1214 1302 1316 1161 878 456 151 62 0 0 0 0 0 0 0 0 0 0
0 0 0 0 0 0 0 0 0 0 0 0 0 0 0 0 0 0 0 0 287 1336 971 619 213 112 276 927 1278 1103 1263 1159 1091 1052 967 630 227 62 5 0 0 0 0 0 0 0 0 0 0
0 0 0 0 0 0 0 0 0 0 0 0 0 0 0 0 0 0 0 0 0 1128 1234 625 329 129 177 638 681 849 943 851 887 847 682 311 92 52 32 17 22 0 0 0 0 0 0 0 0
0 0 0 0 0 0 0 0 0 0 0 0 0 0 0 0 0 0 0 0 0 46 581 696 568 177 158 422 598 383 388 494 588 650 440 118 8 0 86 82 78 81 67 60 11 0 0 0 0
0 0 0 0 0 0 0 0 0 0 0 0 4 0 0 0 0 0 0 0 0 1 42 632 746 519 267 446 608 392 229 157 170 214 276 191 26 28 29 213 191 164 149 245 133 40 45 37 47
0 0 0 0 0 0 0 0 0 0 0 0 0 4 0 0 0 0 0 0 0 0 8 269 1264 755 521 783 848 592 262 281 208 200 231 382 353 119 274 256 494 340 475 482 309 170 109 127 97
0 0 0 0 0 0 0 0 0 0 0 0 0 0 0 0 0 0 0 0 0 0 0 63 1649 1152 806 1075 1322 1392 1026 321 297 397 367 402 499 724 232 541 412 551 678 646 525 384 324 349 373
0 0 0 0 0 0 0 0 0 0 0 0 0 0 0 0 0 0 0 0 0 0 0 7 850 1470 1152 1013 1105 910 1043 770 499 498 619 697 589 590 1118 674 910 672 483 335 392 265 162 71 93
0 0 0 0 0 0 0 0 0 0 0 0 0 0 0 0 0 0 0 0 0 0 0 0 57 618 820 1000 1184 1135 970 976 898 982 1261 1037 994 1012 791 1081 1151 897 634 417 538 368 216 103 76
0 0 0 0 0 0 0 0 0 0 0 0 0 0 0 0 0 0 0 0 0 0 0 0 0 312 1192 939 848 869 880 955 713 699 640 1328 1579 1285 1212 1173 1136 1089 786 732 614 341 212 181 122
0 0 0 0 0 0 0 0 0 0 0 0 0 0 0 0 0 0 0 0 0 0 0 0 0 1 592 1290 720 550 359 754 811 560 528 389 978 1778 1271 1050 1141 1381 1031 715 508 271 174 96 36
0 0 0 0 0 0 0 0 0 0 0 0 0 0 0 0 0 0 6 0 0 0 0 0 0 20 0 1653 1225 849 528 523 460 377 260 250 271 545 1799 1560 1073 898 1105 734 468 233 51 27 69
0 0 0 0 0 0 0 0 0 0 0 0 0 0 0 0 0 0 0 0 0 0 0 0 0 1 25 241 1524 1384 1217 1353 988 703 533 468 278 222 489 1248 1477 1083 591 331 200 119 104 27 24
0 0 0 0 0 0 0 0 0 0 0 0 0 0 0 0 0 0 0 0 0 0 0 0 0 0 1 17 222 752 892 600 882 1114 979 927 611 508 331 307 650 617 549 457 272 246 132 179 55
1 0 0 0 0 0 0 0 0 0 0 0 0 0 0 0 0 0 0 0 0 0 0 0 0 0 0 0 8 131 203 172 216 191 347 557 833 350 222 464 488 629 397 513 631 535 714 558 310
10 0 0 0 0 0 0 0 0 0 0 0 0 0 0 0 0 0 0 0 0 0 0 0 0 0 19 34 0 0 39 53 6 5 26 243 303 179 142 602 932 714 548 690 539 578 824 676 686
0 2 0 0 0 0 0 0 0 0 0 0 0 0 0 0 0 0 0 0 0 0 0 0 0 0 0 0 5 30 0 0 0 0 0 0 22 57 864 1151 1175 882 353 734 853 639 670 837 974
0 0 0 0 0 0 0 3 0 0 22 0 0 0 0 0 0 0 0 0 0 0 0 0 0 0 0 0 1 0 1 13 23 1 0 0 0 0 5 29 644 567 97 994 988 849 667 744 978
0 0 10 5 0 0 0 0 0 0 0 6 0 0 0 0 0 0 0 0 0 0 0 0 0 1 0 0 0 0 2 0 0 4 8 45 60 31 93 124 261 541 808 803 879 959 923 817 1299
59 37 12 4 5 2 0 0 10 26 5 0 0 0 0 0 0 0 0 0 0 0 0 0 0 0 0 0 0 5 1 2 2 48 42 40 75 78 27 0 3 4 38 1019 2459 2556 2608 2418 2712
10 6 5 0 0 4 2 0 80 4 0 0 0 0 0 0 0 0 0 0 0 0 0 1 3 1 0 0 0 0 0 0 32 131 210 197 301 367 325 234 204 158 108 62 1052 2914 3104 3005 3038
13 4 0 3 11 0 0 0 0 23 0 0 0 0 0 1 0 0 0 0 0 0 0 0 11 9 2 6 12 2 0 0 0 0 0 0 0 28 193 329 416 397 552 389 330 730 2644 2669 2774